Starlink 6051

operational
NORAD ID: 56463 Int'l Des: 2023-064 Owner: SPXS Country: US Constellation: starlink
LEOCIRCULAR

Starlink 6051について

説明を読み込み中...

リアルタイム位置

3D地球を読み込み中...

次回通過

高度履歴

Altitude vs Time

uPlot chart will show altitude changes over time

軌道要素

1 56463U 23064R 25352.24211473 -.00000731 00000-0 -53455-4 0 9999
2 56463 70.0008 349.9020 0002749 268.9437 91.1407 14.98331286143048
Epoch: Dec 18, 2025 • Age: 10 hours

現在のステータス

高度 582.9 km
速度 7.57 km/s
衛星直下点 57.73°N, 167.24°E
打ち上げ日 May 10, 2023
運用期間 2.6 years
タイプ internet

技術仕様

分類 Payload
質量 305.00 kg
乾燥質量 290.00 kg
総質量 305.00 kg
長さ 0.20 m
直径 2.80 m
スパン 9.00 m
形状 Box + pan
製造者 SPXS
バスタイプ Starlink
フェーズステータス In Orbit
所有者/国 SPXS/US

大規模コンステレーション

Loading constellations...